Regional Weather Roundup
Issued by NWS

Home | Current Version | Previous Version | Text Only | Print | Product List | Glossary On
Versions: 1 2 3 4 5 6 7 8 9 10 11 12 13 14 15 16 17 18 19 20 21 22 23 24 25 26 27 28 29 30 31 32 33 34 35 36 37 38 39 40 41 42 43 44 45 46 47 48 49 50
000
ASPQ40 PGUM 271212
RWRPQ
WEATHER ROUNDUP FOR THE MARIANAS AND MICRONESIA
NATIONAL WEATHER SERVICE TIYAN GU
1000 PM CHST WED AUG 27 2014

GUZ001>004-271300-
MARIANA ISLANDS-

CITY           SKY/WX    TMP DP  RH WIND       PRES   REMARKS
GUAM AIRPORT   PTCLDY    82  75  78 E5        29.90R
ANDERSEN AFB   MOCLDY    81  75  83 E10       29.90R
ROTA AIRPORT   NOT AVBL
TINIAN AP      NOT AVBL
SAIPAN AP      PTCLDY    82  77  83 E8        29.90R HX  91

$$

PMZ161-271300-
REPUBLIC OF PALAU-

CITY           SKY/WX    TMP DP  RH WIND       PRES   REMARKS
KOROR AP       MOCLDY    79  79 100 CALM      29.85R
KOROR WSO      CLOUDY    81  75  83 CALM      29.85R

$$

PMZ171>174-271300-
FEDERATED STATES OF MICRONESIA-

CITY           SKY/WX    TMP DP  RH WIND       PRES   REMARKS
YAP AIRPORT    MOCLDY    82  77  83 CALM      29.84R HX  91
CHUUK AP       LGT RAIN  79  77  94 VRB6      29.83R
POHNPEI AP     NOT AVBL
POHNPEI WSO    PTCLDY    79  75  89 SE3       29.84S
KOSRAE AP      NOT AVBL

$$

PMZ181-271300-
REPUBLIC OF THE MARSHALL ISLANDS-

CITY           SKY/WX    TMP DP  RH WIND       PRES   REMARKS
KWAJALEIN AP   CLEAR     81  75  83 E7        29.83S
MAJURO AP      NOT AVBL
MAJURO WSO     PTCLDY    82  77  83 SE10      29.82F HX  91

$$



USA.gov is the U.S. government's official web portal to all federal, state and local government web resources and services.